This demonstration page uses our WeatherBlox Daily Observations layout. Learn more.

Left ArrowRight Arrow

30.21309, -93.2044

Hourly Observations for July 13, 2022

Temp ( °F °C ) Dew Point ( °F °C ) Humidity (%) Winds ( mph kmh ) Pressure ( in mb ) Visibility ( mi km ) Precip ( " mm )
12:15 am 00:15 Clear 80 26.4 74 23.1 82 82 Calm 29.93 1014 10 16 0.00 0.00
12:35 am 00:35 Clear 79 26 73 22.8 83 83 NE 3 6 29.94 1014 10 16 0.00 0.00
12:55 am 00:55 Clear 78 25.3 73 22.7 86 86 E 3 6 29.93 1014 10 16 0.00 0.00
1:15 am 01:15 Clear 77 24.8 73 22.9 89 89 Calm 29.93 1014 10 16 0.00 0.00
1:35 am 01:35 Clear 76 24.7 73 22.9 90 90 ESE 3 6 29.93 1014 10 16 0.00 0.00
1:55 am 01:55 Clear 77 24.9 73 22.9 89 89 Calm 29.93 1014 10 16 0.00 0.00
2:15 am 02:15 Clear 77 25.1 73 23 88 88 ENE 3 6 29.94 1014 10 16 0.00 0.00
2:35 am 02:35 Mostly Cloudy 78 25.3 74 23.3 89 89 Calm 29.94 1014 10 16 0.00 0.00
2:55 am 02:55 Partly Cloudy 77 25.1 74 23.2 89 89 Calm 29.94 1014 10 16 0.00 0.00
3:15 am 03:15 Clear 78 25.4 74 23.2 88 88 Calm 29.94 1014 10 16 0.00 0.00
3:35 am 03:35 Partly Cloudy 76 24.5 73 22.9 91 91 SE 3 6 29.94 1014 10 16 0.00 0.00
3:55 am 03:55 Clear 76 24.6 74 23.2 92 92 Calm 29.93 1014 10 16 0.00 0.00
4:15 am 04:15 Clear 76 24.3 74 23.1 93 93 Calm 29.94 1014 10 16 0.00 0.00
4:35 am 04:35 Partly Cloudy 76 24.7 74 23.3 92 92 Calm 29.94 1014 10 16 0.00 0.00
4:55 am 04:55 Clear 76 24.5 74 23.3 93 93 Calm 29.94 1014 7 11 0.00 0.00
5:15 am 05:15 Clear 77 25 75 24 94 94 Calm 29.95 1014 10 16 0.00 0.00
5:35 am 05:35 Clear 77 24.8 74 23.6 93 93 Calm 29.95 1014 7 11 0.00 0.00
6:00 am 06:00 Partly Cloudy 77 25 75 24 94 94 Calm 29.95 1014 10 16 0.00 0.00
6:55 am 06:55 Partly Cloudy with Mist and Fog 79 26 75 24 89 89 Calm 29.97 1015 6 10 0.00 0.00
7:55 am 07:55 Partly Cloudy with Mist and Fog 79 26 79 26 100 100 Calm 29.99 1016 6 10 0.00 0.00
8:55 am 08:55 Partly Cloudy with Mist and Fog 79 26 79 26 100 100 Calm 29.99 1016 6 10 0.00 0.00
9:50 am 09:50 Mostly Cloudy 84 29 79 26 84 84 Calm 30.01 1016 7 11 0.00 0.00
10:45 am 10:45 Mostly Cloudy 88 31 77 25 70 70 NW 7 11 30.01 1016 10 16 0.00 0.00
11:55 am 11:55 Mostly Cloudy 90 32 77 25 67 67 VRB 6 9 30.02 1017 10 16 0.00 0.00
12:47 pm 12:47 Mostly Cloudy 91 33 75 24 59 59 VRB 6 9 30.01 1016 10 16 0.00 0.00
1:47 pm 13:47 Mostly Cloudy 91 33 79 26 67 67 SSE 13 20 29.99 1016 10 16 0.00 0.00
2:45 pm 14:45 Partly Cloudy 91 33 79 26 67 67 SSE 8 13 29.98 1015 10 16 0.00 0.00
3:45 pm 15:45 Partly Cloudy 91 33 77 25 63 63 S 8 13 29.98 1015 10 16 0.00 0.00
4:45 pm 16:45 Mostly Sunny 93 34 75 24 56 56 SSE 6 9 29.97 1015 10 16 0.00 0.00
5:55 pm 17:55 Partly Cloudy 91 33 75 24 59 59 S 10 17 29.94 1014 10 16 0.00 0.00
6:45 pm 18:45 Partly Cloudy 90 32 75 24 63 63 S 14 22 29.94 1014 10 16 0.00 0.00
7:52 pm 19:52 Mostly Sunny 88 31 75 24 66 66 SSW 12 19 29.95 1014 10 16 0.00 0.00
8:47 pm 20:47 Mostly Clear 84 29 77 25 79 79 S 7 11 29.96 1015 10 16 0.00 0.00
9:48 pm 21:48 Mostly Clear 81 27 75 24 84 84 S 6 9 29.97 1015 10 16 0.00 0.00
10:15 pm 22:15 Clear 80 26.5 76 24.6 89 89 SSE 5 7 29.99 1016 10 16 0.00 0.00
10:35 pm 22:35 Clear 80 26.6 76 24.5 88 88 SSE 6 9 30.00 1016 10 16 0.00 0.00
10:55 pm 22:55 Clear 80 26.5 76 24.5 89 89 SSE 8 13 30.00 1016 10 16 0.00 0.00
11:15 pm 23:15 Clear 80 26.4 76 24.5 89 89 SE 3 6 30.01 1016 10 16 0.00 0.00
11:35 pm 23:35 Clear 80 26.4 76 24.4 89 89 ESE 5 7 30.01 1016 10 16 0.00 0.00
11:55 pm 23:55 Clear 79 26.2 76 24.4 90 90 SE 6 9 30.01 1016 10 16 0.00 0.00

Powered by AerisWeather